Aérodrome :
LOGIN :

S'inscrire | Disclaimer

   EN    FR    IT 

 










Légende :    VFR   VFR Marginal   IFR   IFR Intensif   IFR Très Intensif
Visi : 
Plafond : 
>= 8 km
>= 3000ft
5 à 8 km
1000 à 3000 ft
1500m à 5 km
500 à 1000 ft
800 à 1500m
200 à 500 ft
< 800m
< 200 ft
Symboles :   Orages  Brouillard  Fortes neiges  Fortes précipitations  Vent > 20 kt
SIGMETs :   Divers  Orages  Givrage  Turbulence  Onde Orograph.  Cendres Volcan.







- Altitude de l'aérodrome : 55 ft
- Code IATA : DSA
- Voir les cartes d'approche


EGCN - Robin Hood Doncaster Sheffield

DERNIER METAR :
  • 230520Z 31008KT CAVOK M02/M02 Q1000

METARs EXPIRÉS :
  • 230450Z 30009KT CAVOK M01/M01 Q0999
  • 230420Z 30008KT CAVOK M01/M01 Q0999
  • 230350Z 30007KT CAVOK M02/M02 Q0999
  • 230320Z 29008KT CAVOK M02/M02 Q0998
  • 230250Z 31005KT CAVOK M02/M02 Q0998

TAF TAF EGCN
Valide du 23 à 06h jusqu'au 24 à 06h UTC


230455Z 2306/2406 30004KT 9999 FEW020
PROB30
TEMPO 2323/2406 4000 -SHRASN BKN014
Pas de NOTAMs connus pour ce terrain.



MET'MAP, la Météo Aéronautique d'un coup d'oeil ! - Copyright ORBIFLY Décembre 2007 - Disclaimer

ORBIFLY MET'MAP TEAM :

Programmation & Développement : Alexandra Zaïnal
Conception & Développement : Baudouin d'Aumeries
Co-Programmation & Développement : Marc-Olivier Méhu
Soutien technique & logistique : Manuel Goepfert

Contact : metmap@orbifly.com




SOURCES & CREDITS :

   NOAA